Regional Weather Roundup
Issued by NWS

Home | Current Version | Previous Version | Graphics & Text | Print | Product List | Glossary On
Versions: 1 2 3 4 5 6 7 8 9 10 11 12 13 14 15 16 17 18 19 20 21 22 23 24 25 26 27 28 29 30 31 32 33 34 35 36 37 38 39 40 41 42 43 44 45 46 47 48 49 50
000
ASUS44 KMEG 280200
RWRTN
TENNESSEE HOURLY STATE WEATHER ROUNDUP
NATIONAL WEATHER SERVICE MEMPHIS TN
900 PM CDT THU APR 27 2017

TNZ002-004-019-021-049-052-054-088>092-280300-
WEST TENNESSEE

CITY           SKY/WX    TMP DP  RH WIND       PRES   REMARKS
MEMPHIS INTL   CLEAR     64  50  60 SE6       29.81S
NWS MEMPHIS      N/A     58 N/A N/A MISG        N/A
JACKSON        CLEAR     56  54  93 CALM      29.85R
DYERSBURG      CLEAR     58  54  86 E3        29.85R
PARIS          CLEAR     52  50  93 CALM      29.85R
$$

TNZ008-025-027-028-033-062-065-066-280300-
NORTH MIDDLE TENNESSEE

CITY           SKY/WX    TMP DP  RH WIND       PRES   REMARKS
NASHVILLE      PTCLDY    61  50  67 NE3       29.86S
CLARKSVILLE    CLEAR     55  50  83 E3        29.84F
SMYRNA         CLEAR     58  53  84 CALM      29.87S
CROSSVILLE     CLEAR     57  50  77 CALM      29.91R
$$

TNZ061-075-076-078-094-096-097-280300-
SOUTH MIDDLE TENNESSEE

CITY           SKY/WX    TMP DP  RH WIND       PRES   REMARKS
TULLAHOMA      CLEAR     57  52  82 CALM      29.87F
WINCHESTER     CLEAR     59  54  82 CALM      29.88S
COLUMBIA       CLEAR     55  55 100 CALM      29.84S
SHELBYVILLE    CLEAR     57  57 100 CALM      29.87F
$$

TNZ017-018-042-046-047-280300-
NORTHEAST TENNESSEE

CITY           SKY/WX    TMP DP  RH WIND       PRES   REMARKS
TRI CITIES     PTCLDY    61  61 100 CALM      29.89R FOG
$$

TNZ012-013-036-069-073-074-280300-
CENTRAL EAST TENNESSEE

CITY           SKY/WX    TMP DP  RH WIND       PRES   REMARKS
KNOXVILLE      CLEAR     68  56  65 CALM      29.84R
OAK RIDGE      CLEAR     66  60  81 CALM      29.86R
GATLINBURG     CLEAR     63  57  82 CALM      29.85R
$$

TNZ083-085-099-280300-
SOUTHEAST TENNESSEE

CITY           SKY/WX    TMP DP  RH WIND       PRES   REMARKS
CHATTANOOGA    CLEAR     66  57  72 CALM      29.86R
$$

SKY/WX REPORTED AS FAIR MEANS FEW OR NO CLOUDS BELOW
12 THOUSAND FEET.





USA.gov is the U.S. government's official web portal to all federal, state and local government web resources and services.